Flag Weather past 2 weeks in Ras al-Khaimah, Ras al-Khaimah, United Arab Emirates

Now
70 °F

Clear.


Feels Like: 70 °F
Forecast: 62 / 85 °F
Wind: 5 mph from South

Location: Ras Al Khaimah International Airport

Current Time: Nov 24, 2014 at 12:17:37 AM

Latest Report: Nov 24, 2014 at 12:00 AM


Visibility: 4 mi

Pressure: 29.92 "Hg

Humidity: 88%

Dew point: 66 °F

Location of Ras al-KhaimahLocation

Historic Weather in Ras al-Khaimah — Graph

°F

Ras al-Khaimah temperature yesterday

Maximum temperature yesterday: 88 °F (at 1:00 PM)
Minimum temperature yesterday: 59 °F (at 6:00 AM)
Average temperature yesterday: 73 °F

Past Weeks' High & Low Weather Summary

 TemperatureHumidityPressure
High88 °F (Nov 14, 2:00 PM)100% (Nov 15, 4:00 AM)30.18 "Hg (Nov 15, 4:00 AM)
Low54 °F (Nov 10, 4:00 AM)17% (Nov 10, 1:00 PM)29.89 "Hg (Nov 23, 2:00 PM)
Average72 °F59%30.04 "Hg
* Reported Nov 8 11:00 PM — Nov 23 11:00 PM, Ras al-Khaimah, Weather by CustomWeather, © 2014

Note: Actual official high and low records may vary slightly from our data, if they occured in-between our weather recording intervals... More about our weather records

Advertising

Ras al-Khaimah weather history for previous 24 hours

 ConditionsComfort  
Time TempWeatherWind HumidityBarometerVisibility
11:00 PM
Nov 23
70 °FClear.3 mph88%29.95 "Hg10 mi
10:00 PM72 °FClear.3 mph88%29.95 "Hg10 mi
9:00 PM73 °FClear.2 mph83%29.95 "Hg10 mi
8:00 PM73 °FClear.No wind89%29.95 "Hg10 mi
7:00 PM77 °FClear.2 mph79%29.92 "Hg10 mi
6:00 PM79 °FClear.5 mph79%29.92 "Hg10 mi
5:00 PM81 °FSunny.9 mph70%29.92 "Hg10 mi
4:00 PM84 °FSunny.15 mph45%29.89 "Hg10 mi
3:00 PM86 °FSunny.14 mph40%29.89 "Hg10 mi
2:00 PM88 °FSunny.8 mph35%29.89 "Hg10 mi
1:00 PM88 °FSunny.3 mph31%29.92 "Hg10 mi
12:00 PM86 °FSunny.6 mph43%29.95 "Hg10 mi
11:00 AM84 °FSunny.6 mph51%29.98 "Hg10 mi
10:00 AM81 °FSunny.5 mph58%29.98 "Hg10 mi
9:00 AM75 °FSunny.No wind54%29.98 "Hg10 mi
8:00 AM66 °FSunny.3 mph68%29.98 "Hg10 mi
7:00 AM61 °FClear.2 mph88%29.98 "Hg5 mi
6:00 AM59 °FClear.No wind94%29.95 "Hg5 mi
5:00 AM61 °FClear.No wind94%29.95 "Hg4 mi
4:00 AM63 °FClear.3 mph88%29.95 "Hg4 mi
3:00 AM63 °FClear.5 mph88%29.95 "Hg4 mi
2:00 AM64 °FClear.No wind88%29.95 "Hg4 mi
1:00 AM64 °FClear.2 mph88%29.95 "Hg4 mi
12:00 AM66 °FClear.2 mph88%29.95 "Hg5 mi
Weather by CustomWeather, © 2014

See weather overviewHow to use our weather pages